[Date Prev][Date Next][Thread Prev][Thread Next] - [Date Index][Thread Index][Author Index]

2 Line ISS Keps 6-17



ISS
1 25544U 98067A   05167.97165509  .00018450  00000-0  13704-3 0  7041
2 25544 051.6453 262.0108 0004176 263.3482 077.4067 15.72905371375647
----
Via the sarex mailing list at AMSAT.ORG courtesy of AMSAT-NA.
To unsubscribe, send "unsubscribe sarex" to Majordomo@amsat.org



AMSAT Top AMSAT Home